STARLINK-35412, 65797

Orbit data source: Space-Track

STARLINK-35412, 65797 is a payload satellite owned by SpaceX/Seattle (US) in SSO that was launched on Fri, 26 Sep 2025 UTC via an FALCON 9 launch vehicle from the Air Force Western Test Range (AFWTR). Payload-class satellites include a variety of spacecraft equipped with specific instruments for various scientific and technological missions. These include communications satellites like Starlink; space stations such as the ISS; scientific satellites like the Hubble; Earth observation satellites from companies like Planet Labs, Umbra, and HawkEye 360; GPS; miniature CubeSats for education and research; and military/defense satellites.

Loading next visibility...
Identifier
65797, 2025-218G
Orbit
SSO
Country
Flag of USUS
Related business
Manufacturer
SpaceX/Seattle
Mission
Operational Commercial Communications
Bus & Motor
STARLINK V2MO, Unknown motor
Mass
575 kg wet, ~530 kg dry
Launch date (UTC)
2025-09-26 (9 months ago)
Launch vehicle
FALCON 9
Launch site
Air Force Western Test Range (AFWTR)
Object type
Payload
Rocket body
Debris
Shape & HBR
Box + 2 Pan, 17.7 m
Radar Cross Section
36.964 m², Large (>1 m²)

Expand to show TLE details & history
Last TLE update: 15 hours ago

TLE from 15 hours ago
0 STARLINK-35412
1 65797U 25218G   26171.36445227  .00005011  00000-0  35090-3 0  9999
2 65797  97.3400  33.1261 0002090  82.1080 278.0385 15.05658603 40427
Epoch: 2026-06-20T08:44Z
TLE epoch observation values (Epoch: 2026-06-20T08:44:48.676Z)
Latitude
0.00003°
Longitude
-6.65685°
Altitude
552.355 km
Speed
7.586 km/s
True Right ascension
02h 12m 30s
True Declination
0° 00' 00"
Sunlit
Object was in daylight at epoch
Visualization orbit readout
Latitude
Unknown
Longitude
Unknown
Altitude
Unknown
Speed
Unknown
Apparent Right ascension
Unknown
Apparent Declination
Unknown
Sunlit
N/A
Visualization observer readout
Local Sidereal Time
10:18:39
Azimuth
Unknown
Elevation
Unknown
Doppler factor
Unknown
Orbital elements
Apogee altitude
547.914 km
Perigee altitude
545.02 km
Semi-major axis
6,924.604 km
Eccentricity
0.00021
Inclination
97.34°
RAAN
33.1261°
Arg. of periapsis
82.108°
True anomaly
278.01478°
Mean anomaly
278.0385°
Eccentric anomaly
278.02664°
Mean motion
3.76661 °/min
Orbital period
95.58 mins
BSTAR
0.0003509
Loading maneuver chart data...
Computing Atmospheric mass density...
Loading historical data...
Loading historical data...
Loading historical data...
Loading historical data...
Loading historical data...
Loading historical data...
Loading historical data...

Documentation

Showing up to 5 results
|